DELTA 1 R/B, 575

Orbit data source: Space-Track

DELTA 1 R/B, 575 is space debris in HEO originally from a launch on Tue, 07 May 1963 UTC launched from the Air Force Eastern Test Range (AFETR). Debris objects in space refer to the collection of defunct objects orbiting the Earth. Examples of debris include non-operational satellites, rocket bodies, and fragments generated from explosions, collisions, or faulty payload assembly.

Loading next visibility...
Identifier
575, 1963-013B
Orbit
HEO
Country
Flag of USUS
Related business
Manufacturer
ABL
Mission
Spacecraft
Bus & Motor
ALTAIR, Unknown motor
Mass
24 kg wet, 24 kg dry
Launch date (UTC)
1963-05-07 (62 years ago)
Launch vehicle
Unknown
Launch site
Air Force Eastern Test Range (AFETR)
Object type
Payload
Rocket body
Debris
Shape & HBR
Unknown
Radar Cross Section
Medium (>0.1 m² and <1 m²)

Expand to show TLE details & history
Last TLE update: 17 hours ago

TLE from 17 hours ago
0 DELTA 1 R/B
1 00575U 63013B   25299.68038168 -.00000069  00000-0 -10265-2 0  9990
2 00575  42.7572 172.6202 4014963 290.3052  46.1547  6.40260228461035
Epoch: 2025-10-26T16:19Z
TLE epoch observation values (Epoch: 2025-10-26T16:19:44.977Z)
Latitude
14.39757°
Longitude
-91.55408°
Altitude
3,981.094 km
Speed
6.666 km/s
True Right ascension
12h 34m 42s
True Declination
14° 20' 26"
Sunlit
Object was in daylight at epoch
Visualization orbit readout
Latitude
Unknown
Longitude
Unknown
Altitude
Unknown
Speed
Unknown
Apparent Right ascension
Unknown
Apparent Declination
Unknown
Sunlit
N/A
Visualization observer readout
Local Sidereal Time
04:58:14
Azimuth
Unknown
Elevation
Unknown
Doppler factor
Unknown
Orbital elements
Apogee altitude
10,793.337 km
Perigee altitude
954.876 km
Semi-major axis
12,252.244 km
Eccentricity
0.4015
Inclination
42.7572°
RAAN
172.6202°
Arg. of periapsis
290.3052°
True anomaly
91.15553°
Mean anomaly
46.1547°
Eccentric anomaly
67.39086°
Mean motion
1.60037 °/min
Orbital period
224.95 mins
BSTAR
-0.0010265
Loading maneuver chart data...
Computing Atmospheric mass density...
Loading historical data...
Loading historical data...
Loading historical data...
Loading historical data...
Loading historical data...
Loading historical data...
Loading historical data...
Other satellites on launch #13 in the year 1963 (1963-05-07 UTC)

Documentation

Showing up to 5 results
|